,,Stat6,,Stat2,,Stat8,,Stat9,,Stat10,,Wind1,,Wind1,
time,status,PA1M_AVG,status,PR1M_SUM,status,RH1M_AVG,status,SR1M_AVG,status,TA1M_AVG,status,W1dAve1m,status,W1sAve1m,
2004-02-26, 00:00:00,VALID,919.497,VALID,0,VALID,100,VALID,0.0169808,VALID,19.6339,VALID,12,VALID,0.800037,
2004-02-26, 00:01:00,VALID,919.468,VALID,0.2,VALID,100,VALID,0.0509425,VALID,19.615,VALID,16,VALID,0.782227,
2004-02-26, 00:02:00,VALID,919.446,VALID,0,VALID,100,VALID,0.0509425,VALID,19.6021,VALID,23,VALID,0.820313,
2004-02-26, 00:03:00,VALID,919.43,VALID,0,VALID,100,VALID,0,VALID,19.5927,VALID,33,VALID,0.827415,
2004-02-26, 00:04:00,VALID,919.411,VALID,0,VALID,100,VALID,0,VALID,19.5795,VALID,37,VALID,0.819247,
2004-02-26, 00:05:00,VALID,919.392,VALID,0,VALID,100,VALID,0.0339617,VALID,19.5959,VALID,46,VALID,0.796875,
2004-02-26, 00:06:00,VALID,919.378,VALID,0,VALID,100,VALID,0.0339617,VALID,19.5996,VALID,46,VALID,0.871795,
2004-02-26, 00:07:00,VALID,919.349,VALID,0,VALID,100,VALID,0.0339617,VALID,19.5827,VALID,49,VALID,1.01395,
2004-02-26, 00:08:00,VALID,919.34,VALID,0,VALID,100,VALID,0.0169808,VALID,19.5827,VALID,45,VALID,0.829368,
2004-02-26, 00:09:00,VALID,919.319,VALID,0,VALID,100,VALID,0.0509425,VALID,19.589,VALID,46,VALID,0.805618,
2004-02-26, 00:10:00,VALID,919.305,VALID,0,VALID,100,VALID,0.0679233,VALID,19.5793,VALID,46,VALID,0.730053,
2004-02-26, 00:11:00,VALID,919.283,VALID,0,VALID,100,VALID,0.0509425,VALID,19.5701,VALID,43,VALID,0.688021,
2004-02-26, 00:12:00,VALID,919.275,VALID,0,VALID,100,VALID,0.0509425,VALID,19.5597,VALID,41,VALID,0.810724,
2004-02-26, 00:13:00,VALID,919.264,VALID,0,VALID,100,VALID,0.0679233,VALID,19.537,VALID,41,VALID,0.682478,
2004-02-26, 00:14:00,VALID,919.248,VALID,0,VALID,100,VALID,0.0339617,VALID,19.5509,VALID,45,VALID,0.664971,
2004-02-26, 00:15:00,VALID,919.243,VALID,0,VALID,100,VALID,-0.0509425,VALID,19.5517,VALID,56,VALID,0.73601,
2004-02-26, 00:16:00,VALID,919.225,VALID,0,VALID,100,VALID,-0.0339617,VALID,19.5425,VALID,62,VALID,0.623438,
2004-02-26, 00:17:00,VALID,919.199,VALID,0,VALID,100,VALID,-0.0679233,VALID,19.5065,VALID,88,VALID,0.621652,
2004-02-26, 00:18:00,VALID,919.174,VALID,0,VALID,100,VALID,-0.0509425,VALID,19.507,VALID,102,VALID,0.835756,
2004-02-26, 00:19:00,VALID,919.149,VALID,0,VALID,100,VALID,-0.0339617,VALID,19.4906,VALID,107,VALID,0.82934,
2004-02-26, 00:20:00,VALID,919.145,VALID,0,VALID,100,VALID,-0.0849042,VALID,19.4906,VALID,106,VALID,0.762799,
2004-02-26, 00:21:00,VALID,919.121,VALID,0,VALID,100,VALID,-0.0849042,VALID,19.4943,VALID,103,VALID,0.60245,
2004-02-26, 00:22:00,VALID,919.12,VALID,0,VALID,100,VALID,-0.0509425,VALID,19.4908,VALID,103,VALID,0.369048,
2004-02-26, 00:23:00,VALID,919.112,VALID,0,VALID,100,VALID,-0.0509425,VALID,19.5067,VALID,101,VALID,0.383929,
2004-02-26, 00:24:00,VALID,919.124,VALID,0,VALID,100,VALID,-0.0509425,VALID,19.5134,VALID,92,VALID,0.654688,
2004-02-26, 00:25:00,VALID,919.101,VALID,0,VALID,100,VALID,-0.0679233,VALID,19.497,VALID,96,VALID,0.641555,
2004-02-26, 00:26:00,VALID,919.098,VALID,0,VALID,100,VALID,-0.0339617,VALID,19.5008,VALID,97,VALID,0.411328,
2004-02-26, 00:27:00,VALID,919.094,VALID,0,VALID,100,VALID,-0.101885,VALID,19.497,VALID,97,VALID,0.347098,
2004-02-26, 00:28:00,VALID,919.075,VALID,0,VALID,100,VALID,-0.0849042,VALID,19.4933,VALID,100,VALID,0.476199,
2004-02-26, 00:29:00,VALID,919.072,VALID,0,VALID,100,VALID,-0.0849042,VALID,19.5067,VALID,112,VALID,0.670967,
2004-02-26, 00:30:00,VALID,919.062,VALID,0,VALID,100,VALID,0.0339617,VALID,19.5085,VALID,121,VALID,0.763808,
2004-02-26, 00:31:00,VALID,919.038,VALID,0.2,VALID,100,VALID,0.0339617,VALID,19.5286,VALID,134,VALID,0.749256,
2004-02-26, 00:32:00,VALID,919.031,VALID,0,VALID,100,VALID,0.0679233,VALID,19.5149,VALID,136,VALID,0.685213,
2004-02-26, 00:33:00,VALID,919.02,VALID,0,VALID,100,VALID,0,VALID,19.5216,VALID,137,VALID,0.712081,
2004-02-26, 00:34:00,VALID,919.019,VALID,0,VALID,100,VALID,0.0339617,VALID,19.5447,VALID,138,VALID,0.471875,
2004-02-26, 00:35:00,VALID,919.008,VALID,0,VALID,100,VALID,0.0169808,VALID,19.5477,VALID,138,VALID,0.14444,
2004-02-26, 00:36:00,VALID,918.994,VALID,0,VALID,100,VALID,-0.0679233,VALID,19.5559,VALID,138,VALID,0.448709,
2004-02-26, 00:37:00,VALID,918.977,VALID,0,VALID,100,VALID,-0.0509425,VALID,19.5457,VALID,138,VALID,0.219131,
2004-02-26, 00:38:00,VALID,918.957,VALID,0,VALID,100,VALID,-0.0339617,VALID,19.5492,VALID,138,VALID,0.279797,
2004-02-26, 00:39:00,VALID,918.955,VALID,0,VALID,100,VALID,-0.0509425,VALID,19.5427,VALID,138,VALID,0.64335,
2004-02-26, 00:40:00,VALID,918.916,VALID,0,VALID,100,VALID,-0.0679233,VALID,19.5489,VALID,135,VALID,0.626817,
2004-02-26, 00:41:00,VALID,918.901,VALID,0,VALID,100,VALID,-0.0849042,VALID,19.5586,VALID,131,VALID,0.449219,
2004-02-26, 00:42:00,VALID,918.881,VALID,0,VALID,100,VALID,-0.0849042,VALID,19.5651,VALID,131,VALID,0.584441,
2004-02-26, 00:43:00,VALID,918.864,VALID,0,VALID,100,VALID,-0.101885,VALID,19.5683,VALID,130,VALID,0.60973,
2004-02-26, 00:44:00,VALID,918.836,VALID,0,VALID,100,VALID,-0.0509425,VALID,19.5745,VALID,133,VALID,1.03161,
2004-02-26, 00:45:00,VALID,918.814,VALID,0,VALID,100,VALID,0.0509425,VALID,19.5835,VALID,131,VALID,1.03995,
2004-02-26, 00:46:00,VALID,918.795,VALID,0,VALID,100,VALID,0.0169808,VALID,19.5867,VALID,134,VALID,0.885538,
2004-02-26, 00:47:00,VALID,918.784,VALID,0,VALID,100,VALID,0.0679233,VALID,19.583,VALID,136,VALID,0.870739,
2004-02-26, 00:48:00,VALID,918.761,VALID,0,VALID,100,VALID,0.0339617,VALID,19.5897,VALID,139,VALID,0.645032,
2004-02-26, 00:49:00,VALID,918.755,VALID,0,VALID,100,VALID,0.0169808,VALID,19.5736,VALID,133,VALID,0.593564,
2004-02-26, 00:50:00,VALID,918.744,VALID,0,VALID,100,VALID,0.0509425,VALID,19.5572,VALID,126,VALID,0.436756,
2004-02-26, 00:51:00,VALID,918.727,VALID,0,VALID,100,VALID,0.0509425,VALID,19.5706,VALID,126,VALID,0.486374,
2004-02-26, 00:52:00,VALID,918.716,VALID,0,VALID,100,VALID,0.0679233,VALID,19.5738,VALID,153,VALID,0.530342,
2004-02-26, 00:53:00,VALID,918.706,VALID,0,VALID,100,VALID,0.0849042,VALID,19.5569,VALID,139,VALID,0.486281,
2004-02-26, 00:54:00,VALID,918.711,VALID,0,VALID,100,VALID,0.0849042,VALID,19.5505,VALID,132,VALID,0.59096,
2004-02-26, 00:55:00,VALID,918.69,VALID,0,VALID,100,VALID,0.0509425,VALID,19.5542,VALID,131,VALID,0.893973,
2004-02-26, 00:56:00,VALID,918.686,VALID,0,VALID,100,VALID,0.0679233,VALID,19.5507,VALID,130,VALID,1.06341,
2004-02-26, 00:57:00,VALID,918.672,VALID,0,VALID,100,VALID,0.0339617,VALID,19.541,VALID,117,VALID,0.790234,
2004-02-26, 00:58:00,VALID,918.652,VALID,0,VALID,100,VALID,0.0849042,VALID,19.5279,VALID,121,VALID,1.00309,
2004-02-26, 00:59:00,VALID,918.635,VALID,0,VALID,100,VALID,0.0169808,VALID,19.5313,VALID,131,VALID,1.14097,
2004-02-26, 01:00:00,VALID,918.615,VALID,0,VALID,100,VALID,-0.0509425,VALID,19.543,VALID,128,VALID,1.2127,
2004-02-26, 01:01:00,VALID,918.611,VALID,0,VALID,100,VALID,-0.0509425,VALID,19.5323,VALID,126,VALID,1.01228,
2004-02-26, 01:02:00,VALID,918.599,VALID,0,VALID,100,VALID,-0.0509425,VALID,19.5393,VALID,139,VALID,0.791319,
2004-02-26, 01:03:00,VALID,918.568,VALID,0,VALID,100,VALID,-0.0169808,VALID,19.5489,VALID,129,VALID,0.928544,
2004-02-26, 01:04:00,VALID,918.555,VALID,0,VALID,100,VALID,-0.0509425,VALID,19.5455,VALID,137,VALID,1.10975,
2004-02-26, 01:05:00,VALID,918.543,VALID,0,VALID,100,VALID,-0.0509425,VALID,19.5626,VALID,131,VALID,0.955221,
2004-02-26, 01:06:00,VALID,918.533,VALID,0,VALID,100,VALID,-0.0509425,VALID,19.5522,VALID,129,VALID,1.05469,
2004-02-26, 01:07:00,VALID,918.516,VALID,0,VALID,100,VALID,-0.0679233,VALID,19.5497,VALID,132,VALID,1.13301,
2004-02-26, 01:08:00,VALID,918.49,VALID,0,VALID,100,VALID,-0.0509425,VALID,19.5457,VALID,134,VALID,1.47786,
2004-02-26, 01:09:00,VALID,918.479,VALID,0,VALID,100,VALID,-0.0509425,VALID,19.5492,VALID,130,VALID,1.37005,
2004-02-26, 01:10:00,VALID,918.46,VALID,0,VALID,100,VALID,-0.0509425,VALID,19.5524,VALID,142,VALID,1.25399,
2004-02-26, 01:11:00,VALID,918.436,VALID,0,VALID,100,VALID,-0.0679233,VALID,19.546,VALID,141,VALID,1.22113,
2004-02-26, 01:12:00,VALID,918.413,VALID,0,VALID,100,VALID,-0.0509425,VALID,19.5494,VALID,126,VALID,1.29199,
2004-02-26, 01:13:00,VALID,918.385,VALID,0,VALID,100,VALID,-0.0509425,VALID,19.5457,VALID,141,VALID,1.89808,
2004-02-26, 01:14:00,VALID,918.373,VALID,0,VALID,100,VALID,0,VALID,19.546,VALID,138,VALID,1.56163,
2004-02-26, 01:15:00,VALID,918.359,VALID,0,VALID,100,VALID,0.0509425,VALID,19.5447,VALID,131,VALID,1.51871,
2004-02-26, 01:16:00,VALID,918.353,VALID,0,VALID,100,VALID,0.0679233,VALID,19.5318,VALID,129,VALID,1.28034,
2004-02-26, 01:17:00,VALID,918.332,VALID,0,VALID,100,VALID,0.0509425,VALID,19.5288,VALID,131,VALID,1.00469,
2004-02-26, 01:18:00,VALID,918.318,VALID,0,VALID,100,VALID,0.0339617,VALID,19.5283,VALID,142,VALID,1.33408,
2004-02-26, 01:19:00,VALID,918.312,VALID,0,VALID,100,VALID,0.0679233,VALID,19.541,VALID,139,VALID,1.00381,
2004-02-26, 01:20:00,VALID,918.297,VALID,0,VALID,100,VALID,0.0509425,VALID,19.5447,VALID,146,VALID,0.92508,
2004-02-26, 01:21:00,VALID,918.275,VALID,0,VALID,100,VALID,0.0509425,VALID,19.5281,VALID,141,VALID,0.744531,
2004-02-26, 01:22:00,VALID,918.256,VALID,0,VALID,100,VALID,0.0169808,VALID,19.5415,VALID,131,VALID,0.911979,
2004-02-26, 01:23:00,VALID,918.231,VALID,0,VALID,100,VALID,0,VALID,19.5447,VALID,146,VALID,0.889844,
2004-02-26, 01:24:00,VALID,918.214,VALID,0,VALID,100,VALID,0.0509425,VALID,19.5385,VALID,160,VALID,0.609738,
2004-02-26, 01:25:00,VALID,918.185,VALID,0,VALID,100,VALID,0.0679233,VALID,19.5283,VALID,155,VALID,0.99564,
2004-02-26, 01:26:00,VALID,918.149,VALID,0,VALID,100,VALID,0.0679233,VALID,19.5316,VALID,162,VALID,0.600654,
2004-02-26, 01:27:00,VALID,918.132,VALID,0,VALID,100,VALID,0.0509425,VALID,19.5249,VALID,154,VALID,0.511347,
2004-02-26, 01:28:00,VALID,918.118,VALID,0,VALID,100,VALID,0.0509425,VALID,19.5283,VALID,157,VALID,0.594477,
2004-02-26, 01:29:00,VALID,918.098,VALID,0,VALID,100,VALID,0.0169808,VALID,19.5316,VALID,150,VALID,1.01036,
2004-02-26, 01:30:00,VALID,918.082,VALID,0,VALID,100,VALID,0,VALID,19.5055,VALID,146,VALID,0.833651,
2004-02-26, 01:31:00,VALID,918.07,VALID,0,VALID,100,VALID,0,VALID,19.5194,VALID,150,VALID,0.951853,
2004-02-26, 01:32:00,VALID,918.047,VALID,0,VALID,100,VALID,0.0339617,VALID,19.509,VALID,139,VALID,1.06463,
2004-02-26, 01:33:00,VALID,918.039,VALID,0,VALID,100,VALID,0.0169808,VALID,19.506,VALID,137,VALID,1.4613,
2004-02-26, 01:34:00,VALID,918.031,VALID,0,VALID,100,VALID,0.0509425,VALID,19.5122,VALID,134,VALID,1.41679,
2004-02-26, 01:35:00,VALID,918.02,VALID,0,VALID,100,VALID,0.0509425,VALID,19.5221,VALID,127,VALID,1.15955,
2004-02-26, 01:36:00,VALID,918.003,VALID,0,VALID,100,VALID,0.0169808,VALID,19.5122,VALID,137,VALID,1.25409,
2004-02-26, 01:37:00,VALID,917.994,VALID,0,VALID,100,VALID,0.0339617,VALID,19.5189,VALID,126,VALID,1.05944,
2004-02-26, 01:38:00,VALID,917.981,VALID,0,VALID,100,VALID,0.0339617,VALID,19.5219,VALID,129,VALID,1.18413,
2004-02-26, 01:39:00,VALID,917.957,VALID,0,VALID,100,VALID,0.0509425,VALID,19.5219,VALID,127,VALID,1.07813,
2004-02-26, 01:40:00,VALID,917.938,VALID,0,VALID,100,VALID,0.0509425,VALID,19.5221,VALID,126,VALID,0.994665,
2004-02-26, 01:41:00,VALID,917.911,VALID,0,VALID,100,VALID,0,VALID,19.5065,VALID,123,VALID,0.860305,
2004-02-26, 01:42:00,VALID,917.886,VALID,0,VALID,100,VALID,0.0169808,VALID,19.4896,VALID,114,VALID,0.974254,
2004-02-26, 01:43:00,VALID,917.865,VALID,0,VALID,100,VALID,0.0509425,VALID,19.4866,VALID,119,VALID,0.850675,
2004-02-26, 01:44:00,VALID,917.832,VALID,0,VALID,100,VALID,0.0169808,VALID,19.4998,VALID,126,VALID,0.9375,
2004-02-26, 01:45:00,VALID,917.808,VALID,0,VALID,100,VALID,-0.0679233,VALID,19.4908,VALID,118,VALID,0.469308,
2004-02-26, 01:46:00,VALID,917.778,VALID,0,VALID,100,VALID,-0.101885,VALID,19.4948,VALID,119,VALID,0.803267,
2004-02-26, 01:47:00,VALID,917.758,VALID,0,VALID,100,VALID,-0.0679233,VALID,19.4749,VALID,74,VALID,0.598189,
2004-02-26, 01:48:00,VALID,917.742,VALID,0,VALID,100,VALID,-0.0679233,VALID,19.4784,VALID,114,VALID,0.724015,
2004-02-26, 01:49:00,VALID,917.738,VALID,0,VALID,100,VALID,-0.0849042,VALID,19.4752,VALID,103,VALID,0.562318,
2004-02-26, 01:50:00,VALID,917.726,VALID,0,VALID,100,VALID,-0.101885,VALID,19.4652,VALID,125,VALID,0.482879,
2004-02-26, 01:51:00,VALID,917.737,VALID,0,VALID,100,VALID,-0.101885,VALID,19.4757,VALID,133,VALID,0.521205,
2004-02-26, 01:52:00,VALID,917.739,VALID,0,VALID,100,VALID,-0.0849042,VALID,19.4588,VALID,157,VALID,0.549782,
2004-02-26, 01:53:00,VALID,917.735,VALID,0,VALID,100,VALID,-0.101885,VALID,19.4563,VALID,151,VALID,0.378906,
2004-02-26, 01:54:00,VALID,917.735,VALID,0,VALID,100,VALID,-0.101885,VALID,19.4491,VALID,126,VALID,0.456522,
2004-02-26, 01:55:00,VALID,917.739,VALID,0,VALID,100,VALID,-0.0679233,VALID,19.4657,VALID,126,VALID,0.122396,
2004-02-26, 01:56:00,VALID,917.727,VALID,0,VALID,100,VALID,-0.0679233,VALID,19.4784,VALID,125,VALID,0.095846,
2004-02-26, 01:57:00,VALID,917.719,VALID,0,VALID,100,VALID,-0.0679233,VALID,19.4945,VALID,125,VALID,0.0360137,
2004-02-26, 01:58:00,VALID,917.725,VALID,0,VALID,100,VALID,-0.0849042,VALID,19.4943,VALID,125,VALID,0.0053267,
2004-02-26, 01:59:00,VALID,917.703,VALID,0,VALID,100,VALID,-0.0509425,VALID,19.5008,VALID,121,VALID,0.0951705,
2004-02-26, 02:00:00,VALID,917.698,VALID,0,VALID,100,VALID,0,VALID,19.4973,VALID,113,VALID,0.448765,
2004-02-26, 02:01:00,VALID,917.673,VALID,0,VALID,100,VALID,0,VALID,19.4804,VALID,66,VALID,0.625558,
2004-02-26, 02:02:00,VALID,917.642,VALID,0,VALID,100,VALID,0.0169808,VALID,19.4667,VALID,54,VALID,0.816315,
2004-02-26, 02:03:00,VALID,917.633,VALID,0,VALID,100,VALID,0.0169808,VALID,19.4734,VALID,55,VALID,0.961523,
2004-02-26, 02:04:00,VALID,917.598,VALID,0,VALID,100,VALID,0,VALID,19.4613,VALID,70,VALID,0.835366,
2004-02-26, 02:05:00,VALID,917.581,VALID,0,VALID,100,VALID,0.0169808,VALID,19.4511,VALID,57,VALID,0.869673,
2004-02-26, 02:06:00,VALID,917.568,VALID,0,VALID,100,VALID,0.0169808,VALID,19.4608,VALID,44,VALID,0.779948,
2004-02-26, 02:07:00,VALID,917.568,VALID,0,VALID,100,VALID,0.0339617,VALID,19.4576,VALID,36,VALID,0.608507,
2004-02-26, 02:08:00,VALID,917.544,VALID,0,VALID,100,VALID,0,VALID,19.4543,VALID,31,VALID,0.426067,
2004-02-26, 02:09:00,VALID,917.542,VALID,0,VALID,100,VALID,0.0169808,VALID,19.4705,VALID,31,VALID,0.496773,
2004-02-26, 02:10:00,VALID,917.529,VALID,0,VALID,100,VALID,0.0339617,VALID,19.4608,VALID,31,VALID,0.244965,
2004-02-26, 02:11:00,VALID,917.514,VALID,0,VALID,100,VALID,0.0339617,VALID,19.4543,VALID,30,VALID,0.281783,
2004-02-26, 02:12:00,VALID,917.519,VALID,0,VALID,100,VALID,0.0339617,VALID,19.4347,VALID,25,VALID,0.312872,
2004-02-26, 02:13:00,VALID,917.501,VALID,0,VALID,100,VALID,0.0339617,VALID,19.4285,VALID,21,VALID,0.239169,
2004-02-26, 02:14:00,VALID,917.497,VALID,0,VALID,100,VALID,0,VALID,19.4412,VALID,20,VALID,0.0419034,
2004-02-26, 02:15:00,VALID,917.49,VALID,0,VALID,100,VALID,-0.0679233,VALID,19.4424,VALID,271,VALID,0.536458,
2004-02-26, 02:16:00,VALID,917.485,VALID,0,VALID,100,VALID,-0.0849042,VALID,19.462,VALID,261,VALID,0.34157,
2004-02-26, 02:17:00,VALID,917.48,VALID,0,VALID,100,VALID,-0.0849042,VALID,19.4722,VALID,261,VALID,0.334604,
2004-02-26, 02:18:00,VALID,917.462,VALID,0,VALID,100,VALID,-0.0509425,VALID,19.462,VALID,261,VALID,0.31179,
2004-02-26, 02:19:00,VALID,917.446,VALID,0,VALID,100,VALID,-0.0679233,VALID,19.4789,VALID,261,VALID,0.0508721,
2004-02-26, 02:20:00,VALID,917.433,VALID,0,VALID,100,VALID,-0.101885,VALID,19.4752,VALID,261,VALID,0,
2004-02-26, 02:21:00,VALID,917.419,VALID,0,VALID,100,VALID,-0.101885,VALID,19.4724,VALID,261,VALID,0,
2004-02-26, 02:22:00,VALID,917.409,VALID,0,VALID,100,VALID,-0.0849042,VALID,19.4846,VALID,261,VALID,0,
2004-02-26, 02:23:00,VALID,917.396,VALID,0,VALID,100,VALID,-0.101885,VALID,19.4685,VALID,261,VALID,0,
2004-02-26, 02:24:00,VALID,917.374,VALID,0,VALID,100,VALID,-0.101885,VALID,19.4851,VALID,261,VALID,0,
2004-02-26, 02:25:00,VALID,917.343,VALID,0,VALID,100,VALID,-0.101885,VALID,19.4978,VALID,261,VALID,0,
2004-02-26, 02:26:00,VALID,917.301,VALID,0,VALID,100,VALID,-0.0679233,VALID,19.5142,VALID,261,VALID,0,
2004-02-26, 02:27:00,VALID,917.273,VALID,0,VALID,100,VALID,-0.0679233,VALID,19.5008,VALID,261,VALID,0,
2004-02-26, 02:28:00,VALID,917.231,VALID,0,VALID,100,VALID,-0.0679233,VALID,19.4876,VALID,261,VALID,0,
2004-02-26, 02:29:00,VALID,917.198,VALID,0,VALID,100,VALID,-0.101885,VALID,19.4781,VALID,261,VALID,0,
2004-02-26, 02:30:00,VALID,917.169,VALID,0,VALID,100,VALID,-0.0849042,VALID,19.4945,VALID,261,VALID,0,
2004-02-26, 02:31:00,VALID,917.163,VALID,0,VALID,100,VALID,-0.101885,VALID,19.4878,VALID,261,VALID,0,
2004-02-26, 02:32:00,VALID,917.155,VALID,0,VALID,100,VALID,-0.0679233,VALID,19.4948,VALID,261,VALID,0,
2004-02-26, 02:33:00,VALID,917.15,VALID,0,VALID,100,VALID,-0.0849042,VALID,19.4819,VALID,261,VALID,0,
2004-02-26, 02:34:00,VALID,917.158,VALID,0,VALID,100,VALID,-0.0849042,VALID,19.4878,VALID,261,VALID,0,
2004-02-26, 02:35:00,VALID,917.152,VALID,0,VALID,100,VALID,-0.0849042,VALID,19.5045,VALID,310,VALID,0.313802,
2004-02-26, 02:36:00,VALID,917.159,VALID,0,VALID,100,VALID,-0.101885,VALID,19.4819,VALID,43,VALID,0.811498,
2004-02-26, 02:37:00,VALID,917.149,VALID,0,VALID,100,VALID,-0.101885,VALID,19.4332,VALID,47,VALID,0.99566,
2004-02-26, 02:38:00,VALID,917.14,VALID,0,VALID,100,VALID,-0.0849042,VALID,19.3684,VALID,54,VALID,0.991146,
2004-02-26, 02:39:00,VALID,917.129,VALID,0,VALID,100,VALID,-0.0509425,VALID,19.3398,VALID,57,VALID,1.01639,
2004-02-26, 02:40:00,VALID,917.126,VALID,0,VALID,100,VALID,-0.0849042,VALID,19.3209,VALID,57,VALID,0.931463,
2004-02-26, 02:41:00,VALID,917.11,VALID,0,VALID,100,VALID,-0.0509425,VALID,19.2943,VALID,67,VALID,0.910056,
2004-02-26, 02:42:00,VALID,917.097,VALID,0,VALID,100,VALID,-0.101885,VALID,19.2717,VALID,73,VALID,0.952943,
2004-02-26, 02:43:00,VALID,917.079,VALID,0,VALID,100,VALID,-0.0849042,VALID,19.266,VALID,76,VALID,0.629724,
2004-02-26, 02:44:00,VALID,917.063,VALID,0,VALID,100,VALID,-0.101885,VALID,19.2392,VALID,80,VALID,0.645712,
2004-02-26, 02:45:00,VALID,917.042,VALID,0,VALID,100,VALID,-0.0339617,VALID,19.2293,VALID,90,VALID,0.739258,
2004-02-26, 02:46:00,VALID,917.014,VALID,0,VALID,100,VALID,-0.0339617,VALID,19.2196,VALID,90,VALID,0.686523,
2004-02-26, 02:47:00,VALID,917,VALID,0,VALID,100,VALID,-0.0679233,VALID,19.2295,VALID,90,VALID,0.895508,
2004-02-26, 02:48:00,VALID,916.978,VALID,0,VALID,100,VALID,-0.0339617,VALID,19.2228,VALID,88,VALID,0.937137,
2004-02-26, 02:49:00,VALID,916.963,VALID,0,VALID,100,VALID,-0.0339617,VALID,19.2163,VALID,79,VALID,0.988498,
2004-02-26, 02:50:00,VALID,916.937,VALID,0,VALID,100,VALID,0,VALID,19.2131,VALID,72,VALID,0.898438,
2004-02-26, 02:51:00,VALID,916.934,VALID,0,VALID,100,VALID,-0.0169808,VALID,19.197,VALID,74,VALID,0.642671,
2004-02-26, 02:52:00,VALID,916.919,VALID,0,VALID,100,VALID,-0.0169808,VALID,19.1741,VALID,97,VALID,0.864583,
2004-02-26, 02:53:00,VALID,916.92,VALID,0,VALID,100,VALID,0,VALID,19.1937,VALID,122,VALID,0.629972,
2004-02-26, 02:54:00,VALID,916.92,VALID,0,VALID,100,VALID,-0.0169808,VALID,19.187,VALID,110,VALID,0.622142,
2004-02-26, 02:55:00,VALID,916.921,VALID,0,VALID,100,VALID,0,VALID,19.1967,VALID,107,VALID,0.417111,
2004-02-26, 02:56:00,VALID,916.923,VALID,0,VALID,100,VALID,-0.0339617,VALID,19.1806,VALID,107,VALID,0.323583,
2004-02-26, 02:57:00,VALID,916.929,VALID,0,VALID,100,VALID,-0.0169808,VALID,19.1841,VALID,107,VALID,0.321057,
2004-02-26, 02:58:00,VALID,916.931,VALID,0,VALID,100,VALID,0,VALID,19.1577,VALID,107,VALID,0.366616,
2004-02-26, 02:59:00,VALID,916.942,VALID,0,VALID,100,VALID,0,VALID,19.1615,VALID,96,VALID,0.338778,
2004-02-26, 03:00:00,VALID,916.941,VALID,0,VALID,100,VALID,-0.0169808,VALID,19.1682,VALID,53,VALID,0.468928,
2004-02-26, 03:01:00,VALID,916.943,VALID,0,VALID,100,VALID,0,VALID,19.1679,VALID,53,VALID,0.259215,
2004-02-26, 03:02:00,VALID,916.935,VALID,0,VALID,100,VALID,0,VALID,19.1679,VALID,53,VALID,0.122962,
2004-02-26, 03:03:00,VALID,916.943,VALID,0,VALID,100,VALID,-0.0169808,VALID,19.1677,VALID,53,VALID,0.104106,
2004-02-26, 03:04:00,VALID,916.952,VALID,0,VALID,100,VALID,-0.0169808,VALID,19.1617,VALID,53,VALID,0.140234,
2004-02-26, 03:05:00,VALID,916.943,VALID,0,VALID,100,VALID,0,VALID,19.116,VALID,53,VALID,0,
2004-02-26, 03:06:00,VALID,916.953,VALID,0,VALID,100,VALID,-0.0339617,VALID,19.1098,VALID,53,VALID,0,
2004-02-26, 03:07:00,VALID,916.953,VALID,0,VALID,100,VALID,0,VALID,19.1033,VALID,53,VALID,0,
2004-02-26, 03:08:00,VALID,916.937,VALID,0,VALID,100,VALID,0,VALID,19.0805,VALID,53,VALID,0.0372456,
2004-02-26, 03:09:00,VALID,916.943,VALID,0,VALID,100,VALID,-0.0169808,VALID,19.0775,VALID,26,VALID,0.379573,
2004-02-26, 03:10:00,VALID,916.938,VALID,0,VALID,100,VALID,-0.0169808,VALID,19.074,VALID,26,VALID,0.316406,
2004-02-26, 03:11:00,VALID,916.926,VALID,0,VALID,100,VALID,0,VALID,19.0844,VALID,26,VALID,0.0679506,
2004-02-26, 03:12:00,VALID,916.917,VALID,0,VALID,100,VALID,0,VALID,19.074,VALID,26,VALID,0,
2004-02-26, 03:13:00,VALID,916.917,VALID,0,VALID,100,VALID,-0.0169808,VALID,19.077,VALID,26,VALID,0,
2004-02-26, 03:14:00,VALID,916.932,VALID,0,VALID,100,VALID,0,VALID,19.084,VALID,26,VALID,0,
2004-02-26, 03:15:00,VALID,916.943,VALID,0,VALID,100,VALID,-0.0339617,VALID,19.0775,VALID,26,VALID,0,
2004-02-26, 03:16:00,VALID,916.948,VALID,0,VALID,100,VALID,0,VALID,19.0678,VALID,26,VALID,0,
2004-02-26, 03:17:00,VALID,916.947,VALID,0,VALID,100,VALID,-0.0169808,VALID,19.0323,VALID,26,VALID,0,
2004-02-26, 03:18:00,VALID,916.94,VALID,0,VALID,100,VALID,0,VALID,19.0229,VALID,26,VALID,0,
2004-02-26, 03:19:00,VALID,916.95,VALID,0,VALID,100,VALID,0,VALID,18.9936,VALID,26,VALID,0,
2004-02-26, 03:20:00,VALID,916.96,VALID,0,VALID,100,VALID,-0.0169808,VALID,18.9739,VALID,26,VALID,0.128049,
2004-02-26, 03:21:00,VALID,916.972,VALID,0,VALID,100,VALID,0.0169808,VALID,18.9255,VALID,26,VALID,0.158296,
2004-02-26, 03:22:00,VALID,916.973,VALID,0,VALID,100,VALID,-0.0169808,VALID,18.9032,VALID,26,VALID,0.263622,
2004-02-26, 03:23:00,VALID,916.97,VALID,0,VALID,100,VALID,0,VALID,18.8937,VALID,26,VALID,0.245384,
2004-02-26, 03:24:00,VALID,916.986,VALID,0,VALID,100,VALID,0,VALID,18.8771,VALID,26,VALID,0.225229,
2004-02-26, 03:25:00,VALID,916.979,VALID,0,VALID,100,VALID,-0.0169808,VALID,18.8969,VALID,26,VALID,0.402083,
2004-02-26, 03:26:00,VALID,916.969,VALID,0,VALID,100,VALID,0,VALID,18.9064,VALID,30,VALID,0.533727,
2004-02-26, 03:27:00,VALID,916.967,VALID,0,VALID,100,VALID,-0.0169808,VALID,18.9064,VALID,38,VALID,0.759811,
2004-02-26, 03:28:00,VALID,916.975,VALID,0,VALID,100,VALID,-0.0169808,VALID,18.9225,VALID,41,VALID,0.724132,
2004-02-26, 03:29:00,VALID,916.971,VALID,0,VALID,100,VALID,-0.0169808,VALID,18.9419,VALID,41,VALID,0.727325,
2004-02-26, 03:30:00,VALID,916.958,VALID,0,VALID,100,VALID,-0.0339617,VALID,18.9354,VALID,41,VALID,0.664244,
2004-02-26, 03:31:00,VALID,916.98,VALID,0,VALID,100,VALID,-0.0339617,VALID,18.8808,VALID,41,VALID,0.65625,
2004-02-26, 03:32:00,VALID,916.979,VALID,0,VALID,100,VALID,-0.0509425,VALID,18.8609,VALID,41,VALID,0.541016,
2004-02-26, 03:33:00,VALID,916.976,VALID,0,VALID,100,VALID,-0.0339617,VALID,18.8872,VALID,41,VALID,0.324479,
2004-02-26, 03:34:00,VALID,916.988,VALID,0,VALID,100,VALID,0,VALID,18.891,VALID,41,VALID,0.244186,
2004-02-26, 03:35:00,VALID,916.974,VALID,0,VALID,100,VALID,0,VALID,18.884,VALID,41,VALID,0.245276,
2004-02-26, 03:36:00,VALID,916.97,VALID,0,VALID,100,VALID,-0.0169808,VALID,18.8746,VALID,41,VALID,0.323661,
2004-02-26, 03:37:00,VALID,916.98,VALID,0,VALID,100,VALID,0,VALID,18.8614,VALID,41,VALID,0.271875,
2004-02-26, 03:38:00,VALID,916.983,VALID,0,VALID,100,VALID,0,VALID,18.8383,VALID,41,VALID,0.0214844,
2004-02-26, 03:39:00,VALID,916.983,VALID,0,VALID,100,VALID,-0.0169808,VALID,18.8095,VALID,41,VALID,0,
2004-02-26, 03:40:00,VALID,916.979,VALID,0,VALID,100,VALID,-0.0339617,VALID,18.7809,VALID,41,VALID,0.0225074,
2004-02-26, 03:41:00,VALID,916.974,VALID,0,VALID,100,VALID,0,VALID,18.7643,VALID,41,VALID,0.153773,
2004-02-26, 03:42:00,VALID,916.96,VALID,0,VALID,100,VALID,-0.0169808,VALID,18.8003,VALID,41,VALID,0.0452398,